353P/McNaught (2017)

Japanese version
Home page
Updated on October 9, 2017

---------------------------------------------------------------------

* Profile

Designation 353P/2017 M1
Recovery Date June 19, 2017
Magnitude 19.9 mag
Recoverer K. Sarneczky and R. Konyves-Toth (Konkoly Observatory)

* Pictures

* Orbital Elements

Epoch 2018 Jan. 2.0 TT = JDT 2458120.5
T 2017 Dec. 20.94591 TT                                 MPCW
q   2.2140069            (2000.0)            P               Q
n   0.11570769     Peri.  230.39333     +0.91111484     +0.07431208
a   4.1708819      Node   121.57373     -0.02697066     +0.99225296
e   0.4691754      Incl.   28.41389     -0.41126917     +0.09955795
P   8.52
From 71 observations 2008 May 30-2017 June 20, mean residual 0".5.

* Magnitudes Graph

        14.0 + 5 log d + 10.0 log r

---------------------------------------------------------------------

The orbital elements are published on M.P.E.C. 2017-M28.
The magnitudes graphs are made with Comet for Windows.

---------------------------------------------------------------------

Copyright(C) Seiichi Yoshida (comet@aerith.net). All rights reserved.